Time,TemperatureF,DewpointF,PressureIn,WindDirection,WindDirectionDegrees,WindSpeedMPH,WindSpeedGustMPH,Humidity,HourlyPrecipIn,Conditions,Clouds,dailyrainin,SoftwareType,DateUTC
2013-05-31 00:01:00,48.6,42.0,30.13,NW,315,0.0,0.0,78,0.00,RA,FEW,0.00,WeatherDisplay:10.37,2013-05-31 07:01:00,
2013-05-31 00:06:00,48.2,42.0,30.14,NW,315,0.0,0.0,79,0.00,RA,FEW,0.00,WeatherDisplay:10.37,2013-05-31 07:06:00,
2013-05-31 00:11:00,47.8,41.6,30.13,NW,315,0.0,0.0,79,0.00,CLR,FEW,0.00,WeatherDisplay:10.37,2013-05-31 07:11:00,
2013-05-31 00:16:00,47.5,41.3,30.13,NW,315,0.0,0.0,79,0.00,CLR,FEW,0.00,WeatherDisplay:10.37,2013-05-31 07:16:00,
2013-05-31 00:21:00,47.1,40.9,30.14,NW,315,0.0,0.0,79,0.00,CLR,FEW,0.00,WeatherDisplay:10.37,2013-05-31 07:21:00,
2013-05-31 00:26:00,46.9,40.8,30.14,NW,315,0.0,0.0,79,0.00,CLR,FEW,0.00,WeatherDisplay:10.37,2013-05-31 07:26:00,
2013-05-31 00:31:00,46.6,40.7,30.14,NW,315,0.0,0.0,80,0.00,CLR,FEW,0.00,WeatherDisplay:10.37,2013-05-31 07:31:00,
2013-05-31 00:36:00,46.2,40.4,30.14,NW,315,0.0,0.0,80,0.00,CLR,FEW,0.00,WeatherDisplay:10.37,2013-05-31 07:36:00,
2013-05-31 00:41:00,46.0,40.2,30.14,NW,315,0.0,0.0,80,0.00,CLR,FEW,0.00,WeatherDisplay:10.37,2013-05-31 07:41:00,
2013-05-31 00:46:00,46.0,40.2,30.14,NW,315,0.0,0.0,80,0.00,CLR,FEW,0.00,WeatherDisplay:10.37,2013-05-31 07:46:00,
2013-05-31 00:51:00,46.0,40.5,30.14,NW,315,0.0,0.0,81,0.00,CLR,FEW,0.00,WeatherDisplay:10.37,2013-05-31 07:51:00,
2013-05-31 00:56:00,45.7,40.2,30.15,NW,315,0.0,0.0,81,0.00,CLR,FEW,0.00,WeatherDisplay:10.37,2013-05-31 07:56:00,
2013-05-31 01:01:00,45.7,40.2,30.15,NW,315,0.0,0.0,81,0.00,CLR,FEW,0.00,WeatherDisplay:10.37,2013-05-31 08:01:00,
2013-05-31 01:06:00,45.3,39.8,30.15,NW,315,0.0,0.0,81,0.00,CLR,FEW,0.00,WeatherDisplay:10.37,2013-05-31 08:06:00,
2013-05-31 01:11:00,45.1,40.0,30.15,NNW,338,0.0,0.0,82,0.00,CLR,FEW,0.00,WeatherDisplay:10.37,2013-05-31 08:11:00,
2013-05-31 01:16:00,45.0,39.8,30.15,NNW,338,0.0,0.0,82,0.00,CLR,FEW,0.00,WeatherDisplay:10.37,2013-05-31 08:16:00,
2013-05-31 01:22:00,45.0,39.8,30.15,NNW,338,0.0,0.0,82,0.00,CLR,FEW,0.00,WeatherDisplay:10.37,2013-05-31 08:22:00,
2013-05-31 01:27:00,45.1,40.0,30.15,NNW,338,0.0,0.0,82,0.00,CLR,FEW,0.00,WeatherDisplay:10.37,2013-05-31 08:27:00,
2013-05-31 01:32:00,45.3,40.1,30.15,NNW,338,0.0,0.0,82,0.00,CLR,FEW,0.00,WeatherDisplay:10.37,2013-05-31 08:32:00,
2013-05-31 01:37:00,45.3,40.5,30.15,NNW,338,0.0,0.0,83,0.00,CLR,FEW,0.00,WeatherDisplay:10.37,2013-05-31 08:37:00,
2013-05-31 01:42:00,45.3,40.5,30.15,NNW,338,0.0,0.0,83,0.00,CLR,FEW,0.00,WeatherDisplay:10.37,2013-05-31 08:42:00,
2013-05-31 01:47:00,45.1,40.3,30.15,NNW,338,0.0,0.0,83,0.00,CLR,FEW,0.00,WeatherDisplay:10.37,2013-05-31 08:47:00,
2013-05-31 01:52:00,45.3,40.5,30.15,NNW,338,0.0,0.0,83,0.00,CLR,FEW,0.00,WeatherDisplay:10.37,2013-05-31 08:52:00,
2013-05-31 01:57:00,45.5,40.9,30.16,NNW,338,0.0,0.0,84,0.00,CLR,FEW,0.00,WeatherDisplay:10.37,2013-05-31 08:57:00,
2013-05-31 02:02:00,45.5,40.9,30.16,NNW,338,0.0,0.0,84,0.00,CLR,FEW,0.00,WeatherDisplay:10.37,2013-05-31 09:02:00,
2013-05-31 02:07:00,45.7,41.1,30.16,NNW,338,0.0,0.0,84,0.00,CLR,FEW,0.00,WeatherDisplay:10.37,2013-05-31 09:07:00,
2013-05-31 02:12:00,45.9,41.3,30.15,NNW,338,0.0,0.0,84,0.00,CLR,FEW,0.00,WeatherDisplay:10.37,2013-05-31 09:12:00,
2013-05-31 02:17:00,46.0,41.5,30.15,NNW,338,0.0,0.0,84,0.00,CLR,FEW,0.00,WeatherDisplay:10.37,2013-05-31 09:17:00,
2013-05-31 02:22:00,46.0,41.5,30.16,NNW,338,0.0,0.0,84,0.00,CLR,FEW,0.00,WeatherDisplay:10.37,2013-05-31 09:22:00,
2013-05-31 02:27:00,46.0,41.5,30.16,NNW,338,0.0,0.0,84,0.00,CLR,FEW,0.00,WeatherDisplay:10.37,2013-05-31 09:27:00,
2013-05-31 02:32:00,46.0,41.5,30.16,NNW,338,0.0,0.0,84,0.00,CLR,FEW,0.00,WeatherDisplay:10.37,2013-05-31 09:32:00,
2013-05-31 02:37:00,46.2,41.7,30.16,NNW,338,0.0,0.0,84,0.00,CLR,FEW,0.00,WeatherDisplay:10.37,2013-05-31 09:37:00,
2013-05-31 02:42:00,46.2,41.7,30.16,NNW,338,0.0,0.0,84,0.00,CLR,FEW,0.00,WeatherDisplay:10.37,2013-05-31 09:42:00,
2013-05-31 02:47:00,46.2,41.7,30.16,NNW,338,0.0,0.0,84,0.00,CLR,FEW,0.00,WeatherDisplay:10.37,2013-05-31 09:47:00,
2013-05-31 02:52:00,46.2,41.7,30.16,NNW,338,0.0,0.0,84,0.00,CLR,FEW,0.00,WeatherDisplay:10.37,2013-05-31 09:52:00,
2013-05-31 02:57:00,46.2,42.0,30.16,NNW,338,0.0,0.0,85,0.00,CLR,FEW,0.00,WeatherDisplay:10.37,2013-05-31 09:57:00,
2013-05-31 03:02:00,46.4,42.1,30.17,NNW,338,0.0,0.0,85,0.00,CLR,FEW,0.00,WeatherDisplay:10.37,2013-05-31 10:02:00,
2013-05-31 03:07:00,46.6,42.3,30.17,NNW,338,0.0,0.0,85,0.00,CLR,FEW,0.00,WeatherDisplay:10.37,2013-05-31 10:07:00,
2013-05-31 03:12:00,46.6,42.3,30.17,NNW,338,0.0,0.0,85,0.00,CLR,FEW,0.00,WeatherDisplay:10.37,2013-05-31 10:12:00,
2013-05-31 03:17:00,46.6,42.3,30.17,NNW,338,0.0,0.0,85,0.00,CLR,FEW,0.00,WeatherDisplay:10.37,2013-05-31 10:17:00,
2013-05-31 03:22:00,46.8,42.5,30.17,NNW,338,0.0,0.0,85,0.00,CLR,FEW,0.00,WeatherDisplay:10.37,2013-05-31 10:22:00,
2013-05-31 03:27:00,46.8,42.5,30.17,NNW,338,0.0,0.0,85,0.00,CLR,FEW,0.00,WeatherDisplay:10.37,2013-05-31 10:27:00,
2013-05-31 03:32:00,46.9,42.7,30.18,NNW,338,0.0,0.0,85,0.00,CLR,FEW,0.00,WeatherDisplay:10.37,2013-05-31 10:32:00,
2013-05-31 03:37:00,46.9,42.7,30.18,NNW,338,0.0,0.0,85,0.00,CLR,FEW,0.00,WeatherDisplay:10.37,2013-05-31 10:37:00,
2013-05-31 03:42:00,46.9,43.0,30.18,NNW,338,0.0,0.0,86,0.00,CLR,FEW,0.00,WeatherDisplay:10.37,2013-05-31 10:42:00,
2013-05-31 03:47:00,46.9,43.0,30.18,NNW,338,0.0,0.0,86,0.00,CLR,FEW,0.00,WeatherDisplay:10.37,2013-05-31 10:47:00,
2013-05-31 03:52:00,46.9,42.7,30.18,NNW,338,0.0,0.0,85,0.00,CLR,FEW,0.00,WeatherDisplay:10.37,2013-05-31 10:52:00,
2013-05-31 03:57:00,46.9,42.7,30.18,NNW,338,0.0,0.0,85,0.00,CLR,FEW,0.00,WeatherDisplay:10.37,2013-05-31 10:57:00,
2013-05-31 04:02:00,46.9,42.7,30.18,NNW,338,0.0,0.0,85,0.00,CLR,FEW,0.00,WeatherDisplay:10.37,2013-05-31 11:02:00,
2013-05-31 04:07:00,46.9,42.7,30.18,NNW,338,0.0,0.0,85,0.00,CLR,FEW,0.00,WeatherDisplay:10.37,2013-05-31 11:07:00,
2013-05-31 04:12:00,46.9,42.7,30.18,NNW,338,0.0,0.0,85,0.00,CLR,FEW,0.00,WeatherDisplay:10.37,2013-05-31 11:12:00,
2013-05-31 04:17:00,46.9,42.7,30.18,NNW,338,0.0,0.0,85,0.00,CLR,FEW,0.00,WeatherDisplay:10.37,2013-05-31 11:17:00,
2013-05-31 04:22:00,46.9,42.7,30.18,NNW,338,0.0,0.0,85,0.00,CLR,FEW,0.00,WeatherDisplay:10.37,2013-05-31 11:22:00,
2013-05-31 04:27:00,46.9,42.7,30.18,NNW,338,0.0,0.0,85,0.00,CLR,FEW,0.00,WeatherDisplay:10.37,2013-05-31 11:27:00,
2013-05-31 04:32:00,46.9,42.7,30.19,NNW,338,0.0,0.0,85,0.00,CLR,FEW,0.00,WeatherDisplay:10.37,2013-05-31 11:32:00,
2013-05-31 04:37:00,46.8,42.5,30.19,NNW,338,0.0,0.0,85,0.00,CLR,FEW,0.00,WeatherDisplay:10.37,2013-05-31 11:37:00,
2013-05-31 04:42:00,46.8,42.5,30.19,NNW,338,0.0,0.0,85,0.00,CLR,FEW,0.00,WeatherDisplay:10.37,2013-05-31 11:42:00,
2013-05-31 04:47:00,46.6,42.3,30.19,NNW,338,0.0,0.0,85,0.00,CLR,FEW,0.00,WeatherDisplay:10.37,2013-05-31 11:47:00,
2013-05-31 04:52:00,46.4,42.1,30.20,NNW,338,0.0,0.0,85,0.00,CLR,FEW,0.00,WeatherDisplay:10.37,2013-05-31 11:52:00,
2013-05-31 04:57:00,46.2,42.0,30.20,NNW,338,0.0,0.0,85,0.00,CLR,FEW,0.00,WeatherDisplay:10.37,2013-05-31 11:57:00,
2013-05-31 05:02:00,46.2,42.0,30.21,NNW,338,0.0,0.0,85,0.00,CLR,FEW,0.00,WeatherDisplay:10.37,2013-05-31 12:02:00,
2013-05-31 05:07:00,46.0,41.8,30.21,NNW,338,0.0,0.0,85,0.00,CLR,FEW,0.00,WeatherDisplay:10.37,2013-05-31 12:07:00,
2013-05-31 05:12:00,46.0,41.8,30.21,NNW,338,0.0,0.0,85,0.00,CLR,FEW,0.00,WeatherDisplay:10.37,2013-05-31 12:12:00,
2013-05-31 05:17:00,46.0,41.8,30.21,NNW,338,0.0,0.0,85,0.00,CLR,FEW,0.00,WeatherDisplay:10.37,2013-05-31 12:17:00,
2013-05-31 05:22:00,46.0,41.8,30.21,NW,315,0.0,0.0,85,0.00,CLR,FEW,0.00,WeatherDisplay:10.37,2013-05-31 12:22:00,
2013-05-31 05:27:00,46.0,41.8,30.21,NW,315,0.0,0.0,85,0.00,CLR,FEW,0.00,WeatherDisplay:10.37,2013-05-31 12:27:00,
2013-05-31 05:32:00,46.0,41.8,30.21,NW,315,0.0,0.0,85,0.00,CLR,FEW,0.00,WeatherDisplay:10.37,2013-05-31 12:32:00,
2013-05-31 05:37:00,46.0,41.8,30.21,NW,315,0.0,0.0,85,0.00,CLR,FEW,0.00,WeatherDisplay:10.37,2013-05-31 12:37:00,
2013-05-31 05:42:00,46.2,42.3,30.22,NW,315,0.0,0.0,86,0.00,CLR,FEW,0.00,WeatherDisplay:10.37,2013-05-31 12:42:00,
2013-05-31 05:47:00,46.2,42.3,30.22,NW,315,0.0,0.0,86,0.00,CLR,FEW,0.00,WeatherDisplay:10.37,2013-05-31 12:47:00,
2013-05-31 05:52:00,46.6,42.6,30.22,NW,315,0.0,0.0,86,0.00,CLR,FEW,0.00,WeatherDisplay:10.37,2013-05-31 12:52:00,
2013-05-31 05:57:00,46.8,42.8,30.22,NW,315,0.0,0.0,86,0.00,CLR,FEW,0.00,WeatherDisplay:10.37,2013-05-31 12:57:00,
2013-05-31 06:02:00,46.9,43.0,30.22,NW,315,0.0,0.0,86,0.00,CLR,FEW,0.00,WeatherDisplay:10.37,2013-05-31 13:02:00,
2013-05-31 06:07:00,47.3,43.3,30.22,NW,315,0.0,0.0,86,0.00,CLR,FEW,0.00,WeatherDisplay:10.37,2013-05-31 13:07:00,
2013-05-31 06:12:00,48.0,44.0,30.23,NW,315,0.0,0.0,86,0.00,CLR,FEW,0.00,WeatherDisplay:10.37,2013-05-31 13:12:00,
2013-05-31 06:17:00,48.6,44.6,30.23,NW,315,0.0,0.0,86,0.00,CLR,FEW,0.00,WeatherDisplay:10.37,2013-05-31 13:17:00,
2013-05-31 06:22:00,49.3,45.3,30.23,NW,315,0.0,0.0,86,0.00,CLR,FEW,0.00,WeatherDisplay:10.37,2013-05-31 13:22:00,
2013-05-31 06:27:00,50.5,46.2,30.23,NW,315,0.0,0.0,85,0.00,CLR,FEW,0.00,WeatherDisplay:10.37,2013-05-31 13:27:00,
2013-05-31 06:32:00,50.7,46.4,30.23,NNW,338,0.0,0.0,85,0.00,CLR,FEW,0.00,WeatherDisplay:10.37,2013-05-31 13:32:00,
2013-05-31 06:37:00,50.5,45.9,30.24,NNW,338,0.0,0.0,84,0.00,CLR,FEW,0.00,WeatherDisplay:10.37,2013-05-31 13:37:00,
2013-05-31 06:42:00,50.4,45.7,30.23,NNW,338,0.0,0.0,84,0.00,CLR,FEW,0.00,WeatherDisplay:10.37,2013-05-31 13:42:00,
2013-05-31 06:47:00,50.2,45.2,30.23,NNW,338,0.0,0.0,83,0.00,CLR,FEW,0.00,WeatherDisplay:10.37,2013-05-31 13:47:00,
2013-05-31 06:52:00,49.8,44.9,30.23,NNW,338,0.0,0.0,83,0.00,CLR,FEW,0.00,WeatherDisplay:10.37,2013-05-31 13:52:00,
2013-05-31 06:57:00,49.8,44.9,30.23,NNW,338,0.0,0.0,83,0.00,CLR,FEW,0.00,WeatherDisplay:10.37,2013-05-31 13:57:00,
2013-05-31 07:02:00,50.7,45.7,30.23,NNW,338,0.0,0.0,83,0.00,CLR,FEW,0.00,WeatherDisplay:10.37,2013-05-31 14:02:00,
2013-05-31 07:07:00,50.9,45.6,30.23,NNW,338,0.0,0.0,82,0.00,CLR,FEW,0.00,WeatherDisplay:10.37,2013-05-31 14:07:00,
2013-05-31 07:12:00,51.6,46.3,30.24,NNW,338,0.0,0.0,82,0.00,CLR,FEW,0.00,WeatherDisplay:10.37,2013-05-31 14:12:00,
2013-05-31 07:17:00,53.4,48.1,30.24,NNW,338,0.0,0.0,82,0.00,CLR,FEW,0.00,WeatherDisplay:10.37,2013-05-31 14:17:00,
2013-05-31 07:22:00,57.4,51.3,30.24,NNW,338,0.0,0.0,80,0.00,CLR,FEW,0.00,WeatherDisplay:10.37,2013-05-31 14:22:00,
2013-05-31 07:27:00,60.6,52.3,30.24,NNW,338,0.0,0.0,74,0.00,CLR,FEW,0.00,WeatherDisplay:10.37,2013-05-31 14:27:00,
2013-05-31 07:32:00,62.4,52.1,30.24,NNW,338,0.0,0.0,69,0.00,CLR,FEW,0.00,WeatherDisplay:10.37,2013-05-31 14:32:00,
2013-05-31 07:37:00,63.5,51.9,30.24,NNW,338,0.0,0.0,66,0.00,CLR,FEW,0.00,WeatherDisplay:10.37,2013-05-31 14:37:00,
2013-05-31 07:42:00,61.9,50.8,30.24,NNW,338,0.0,0.0,67,0.00,CLR,FEW,0.00,WeatherDisplay:10.37,2013-05-31 14:42:00,
2013-05-31 07:47:00,62.1,51.4,30.24,NNW,338,0.0,0.0,68,0.00,CLR,FEW,0.00,WeatherDisplay:10.37,2013-05-31 14:47:00,
2013-05-31 07:52:00,62.4,51.3,30.24,NNW,338,0.0,0.0,67,0.00,CLR,FEW,0.00,WeatherDisplay:10.37,2013-05-31 14:52:00,
2013-05-31 07:57:00,61.3,50.3,30.24,NNW,338,0.0,0.0,67,0.00,CLR,FEW,0.00,WeatherDisplay:10.37,2013-05-31 14:57:00,
2013-05-31 08:02:00,60.6,49.2,30.24,NNW,338,0.0,0.0,66,0.00,CLR,FEW,0.00,WeatherDisplay:10.37,2013-05-31 15:02:00,
2013-05-31 08:07:00,59.7,48.3,30.24,NNW,338,0.0,0.0,66,0.00,CLR,FEW,0.00,WeatherDisplay:10.37,2013-05-31 15:07:00,
2013-05-31 08:12:00,60.4,49.4,30.25,NW,315,0.0,0.0,67,0.00,CLR,FEW,0.00,WeatherDisplay:10.37,2013-05-31 15:12:00,
2013-05-31 08:17:00,60.6,49.2,30.24,NW,315,0.0,0.0,66,0.00,CLR,FEW,0.00,WeatherDisplay:10.37,2013-05-31 15:17:00,
2013-05-31 08:22:00,61.0,49.5,30.25,NW,315,0.0,0.0,66,0.00,CLR,FEW,0.00,WeatherDisplay:10.37,2013-05-31 15:22:00,
2013-05-31 08:27:00,61.5,49.6,30.24,NW,315,0.0,0.0,65,0.00,CLR,FEW,0.00,WeatherDisplay:10.37,2013-05-31 15:27:00,
2013-05-31 08:32:00,61.7,49.8,30.25,NW,315,0.0,0.0,65,0.00,CLR,FEW,0.00,WeatherDisplay:10.37,2013-05-31 15:32:00,
2013-05-31 08:37:00,62.1,50.2,30.24,NNW,338,0.0,0.0,65,0.00,CLR,FEW,0.00,WeatherDisplay:10.37,2013-05-31 15:37:00,
2013-05-31 08:42:00,61.9,49.6,30.25,NNW,338,0.0,0.0,64,0.00,CLR,FEW,0.00,WeatherDisplay:10.37,2013-05-31 15:42:00,
2013-05-31 08:47:00,61.9,49.6,30.24,NNW,338,0.0,0.0,64,0.00,CLR,FEW,0.00,WeatherDisplay:10.37,2013-05-31 15:47:00,
2013-05-31 08:52:00,61.7,49.0,30.24,North,0,0.0,0.0,63,0.00,CLR,FEW,0.00,WeatherDisplay:10.37,2013-05-31 15:52:00,
2013-05-31 08:57:00,62.4,49.7,30.24,North,0,0.0,0.0,63,0.00,CLR,FEW,0.00,WeatherDisplay:10.37,2013-05-31 15:57:00,
2013-05-31 09:02:00,63.1,49.9,30.24,North,0,0.0,0.0,62,0.00,CLR,FEW,0.00,WeatherDisplay:10.37,2013-05-31 16:02:00,
2013-05-31 09:07:00,63.5,49.8,30.24,North,0,0.0,0.0,61,0.00,CLR,FEW,0.00,WeatherDisplay:10.37,2013-05-31 16:07:00,
2013-05-31 09:12:00,64.0,49.9,30.24,North,0,0.0,0.0,60,0.00,CLR,FEW,0.00,WeatherDisplay:10.37,2013-05-31 16:12:00,
2013-05-31 09:17:00,64.6,49.9,30.24,NE,45,5.8,5.8,59,0.00,CLR,FEW,0.00,WeatherDisplay:10.37,2013-05-31 16:17:00,
2013-05-31 09:22:00,64.0,49.0,30.24,ESE,112,0.0,0.0,58,0.00,CLR,FEW,0.00,WeatherDisplay:10.37,2013-05-31 16:22:00,
2013-05-31 09:27:00,63.7,48.6,30.24,ESE,112,0.0,0.0,58,0.00,CLR,FEW,0.00,WeatherDisplay:10.37,2013-05-31 16:27:00,
2013-05-31 09:32:00,64.0,49.0,30.24,ESE,112,3.5,3.5,58,0.00,CLR,FEW,0.00,WeatherDisplay:10.37,2013-05-31 16:32:00,
2013-05-31 09:37:00,64.0,48.5,30.24,ENE,68,0.0,0.0,57,0.00,CLR,FEW,0.00,WeatherDisplay:10.37,2013-05-31 16:37:00,
2013-05-31 09:42:00,64.0,48.0,30.24,ENE,68,0.0,0.0,56,0.00,CLR,FEW,0.00,WeatherDisplay:10.37,2013-05-31 16:42:00,
2013-05-31 09:47:00,65.1,49.0,30.23,ENE,68,0.0,0.0,56,0.00,CLR,FEW,0.00,WeatherDisplay:10.37,2013-05-31 16:47:00,
2013-05-31 09:52:00,66.0,48.9,30.24,ENE,68,0.0,0.0,54,0.00,CLR,FEW,0.00,WeatherDisplay:10.37,2013-05-31 16:52:00,
2013-05-31 09:57:00,66.2,48.0,30.24,East,90,0.0,0.0,52,0.00,CLR,FEW,0.00,WeatherDisplay:10.37,2013-05-31 16:57:00,
2013-05-31 10:02:00,66.0,47.4,30.24,East,90,0.0,0.0,51,0.00,CLR,FEW,0.00,WeatherDisplay:10.37,2013-05-31 17:02:00,
2013-05-31 10:07:00,66.4,47.7,30.24,East,90,2.3,2.4,51,0.00,CLR,FEW,0.00,WeatherDisplay:10.37,2013-05-31 17:07:00,
2013-05-31 10:12:00,66.4,47.2,30.24,ESE,112,0.0,0.0,50,0.00,CLR,FEW,0.00,WeatherDisplay:10.37,2013-05-31 17:12:00,
2013-05-31 10:17:00,66.4,47.2,30.23,ESE,112,0.0,0.0,50,0.00,CLR,FEW,0.00,WeatherDisplay:10.37,2013-05-31 17:17:00,
2013-05-31 10:22:00,66.6,47.3,30.24,SE,135,0.0,0.0,50,0.00,CLR,FEW,0.00,WeatherDisplay:10.37,2013-05-31 17:22:00,
2013-05-31 10:27:00,67.3,48.0,30.23,SE,135,0.0,0.0,50,0.00,CLR,FEW,0.00,WeatherDisplay:10.37,2013-05-31 17:27:00,
2013-05-31 10:32:00,67.8,48.5,30.23,SE,135,4.9,4.9,50,0.00,CLR,FEW,0.00,WeatherDisplay:10.37,2013-05-31 17:32:00,
2013-05-31 10:37:00,67.8,48.5,30.23,ESE,112,1.3,0.0,50,0.00,CLR,FEW,0.00,WeatherDisplay:10.37,2013-05-31 17:37:00,
2013-05-31 10:42:00,68.2,48.8,30.23,SW,225,0.0,0.0,50,0.00,CLR,FEW,0.00,WeatherDisplay:10.37,2013-05-31 17:42:00,
2013-05-31 10:47:00,68.2,47.7,30.24,South,180,0.0,0.0,48,0.00,CLR,FEW,0.00,WeatherDisplay:10.37,2013-05-31 17:47:00,
2013-05-31 10:52:00,68.2,47.7,30.24,SSE,158,0.0,0.0,48,0.00,CLR,FEW,0.00,WeatherDisplay:10.37,2013-05-31 17:52:00,
2013-05-31 10:57:00,68.4,47.9,30.24,SSW,202,0.0,0.0,48,0.00,CLR,FEW,0.00,WeatherDisplay:10.37,2013-05-31 17:57:00,
2013-05-31 11:02:00,68.7,48.2,30.23,SSW,202,0.0,0.0,48,0.00,CLR,FEW,0.00,WeatherDisplay:10.37,2013-05-31 18:02:00,
2013-05-31 11:07:00,68.9,48.4,30.23,SE,135,0.0,0.0,48,0.00,CLR,FEW,0.00,WeatherDisplay:10.37,2013-05-31 18:07:00,
2013-05-31 11:12:00,68.5,48.1,30.23,SE,135,0.0,0.0,48,0.00,CLR,FEW,0.00,WeatherDisplay:10.37,2013-05-31 18:12:00,
2013-05-31 11:17:00,68.2,48.3,30.23,South,180,0.0,0.0,49,0.00,CLR,FEW,0.00,WeatherDisplay:10.37,2013-05-31 18:17:00,
2013-05-31 11:22:00,68.2,48.3,30.23,South,180,4.6,4.6,49,0.00,CLR,FEW,0.00,WeatherDisplay:10.37,2013-05-31 18:22:00,
2013-05-31 11:27:00,68.7,48.8,30.23,SSE,158,4.6,4.7,49,0.00,CLR,FEW,0.00,WeatherDisplay:10.37,2013-05-31 18:27:00,
2013-05-31 11:32:00,69.3,49.3,30.23,SE,135,1.3,1.3,49,0.00,CLR,FEW,0.00,WeatherDisplay:10.37,2013-05-31 18:32:00,
2013-05-31 11:37:00,69.1,48.6,30.23,SE,135,5.8,5.9,48,0.00,CLR,FEW,0.00,WeatherDisplay:10.37,2013-05-31 18:37:00,
2013-05-31 11:42:00,68.4,47.3,30.23,SE,135,2.3,2.3,47,0.00,CLR,FEW,0.00,WeatherDisplay:10.37,2013-05-31 18:42:00,
2013-05-31 11:47:00,68.2,47.2,30.23,SE,135,0.0,0.0,47,0.00,CLR,FEW,0.00,WeatherDisplay:10.37,2013-05-31 18:47:00,
2013-05-31 11:52:00,67.6,46.7,30.23,SE,135,0.0,0.0,47,0.00,CLR,FEW,0.00,WeatherDisplay:10.37,2013-05-31 18:52:00,
2013-05-31 11:57:00,67.8,46.8,30.23,SE,135,0.0,0.0,47,0.00,CLR,FEW,0.00,WeatherDisplay:10.37,2013-05-31 18:57:00,
2013-05-31 12:02:00,67.8,46.8,30.22,SE,135,0.0,0.0,47,0.00,CLR,FEW,0.00,WeatherDisplay:10.37,2013-05-31 19:02:00,
2013-05-31 12:07:00,67.6,46.7,30.23,SE,135,0.0,0.0,47,0.00,CLR,FEW,0.00,WeatherDisplay:10.37,2013-05-31 19:07:00,
2013-05-31 12:12:00,68.0,47.6,30.22,SW,225,0.0,0.0,48,0.00,CLR,FEW,0.00,WeatherDisplay:10.37,2013-05-31 19:12:00,
2013-05-31 12:17:00,68.5,48.1,30.22,South,180,0.0,0.0,48,0.00,CLR,FEW,0.00,WeatherDisplay:10.37,2013-05-31 19:17:00,
2013-05-31 12:22:00,70.2,50.1,30.22,SSE,158,7.4,7.4,49,0.00,CLR,FEW,0.00,WeatherDisplay:10.37,2013-05-31 19:22:00,
2013-05-31 12:27:00,70.3,48.0,30.22,SE,135,3.5,3.5,45,0.00,CLR,FEW,0.00,WeatherDisplay:10.37,2013-05-31 19:27:00,
2013-05-31 12:32:00,70.9,48.5,30.21,SSE,158,0.0,0.0,45,0.00,CLR,FEW,0.00,WeatherDisplay:10.37,2013-05-31 19:32:00,
2013-05-31 12:37:00,71.2,47.6,30.22,NW,315,8.1,8.1,43,0.00,CLR,FEW,0.00,WeatherDisplay:10.37,2013-05-31 19:37:00,
2013-05-31 12:42:00,71.2,47.6,30.22,NW,315,0.0,0.0,43,0.00,CLR,FEW,0.00,WeatherDisplay:10.37,2013-05-31 19:42:00,
2013-05-31 12:47:00,70.7,46.5,30.23,NNW,338,0.0,0.0,42,0.00,CLR,FEW,0.00,WeatherDisplay:10.37,2013-05-31 19:47:00,
2013-05-31 12:52:00,70.7,47.1,30.22,NW,315,0.0,0.0,43,0.00,CLR,FEW,0.00,WeatherDisplay:10.37,2013-05-31 19:52:00,
2013-05-31 12:57:00,71.4,49.0,30.22,SSW,202,0.0,0.0,45,0.00,CLR,FEW,0.00,WeatherDisplay:10.37,2013-05-31 19:57:00,
2013-05-31 13:02:00,71.4,47.7,30.21,ESE,112,4.6,4.6,43,0.00,CLR,FEW,0.00,WeatherDisplay:10.37,2013-05-31 20:02:00,
2013-05-31 13:07:00,70.9,46.6,30.21,SE,135,3.5,3.5,42,0.00,CLR,FEW,0.00,WeatherDisplay:10.37,2013-05-31 20:07:00,
2013-05-31 13:12:00,70.2,46.0,30.21,SE,135,4.6,0.0,42,0.00,CLR,FEW,0.00,WeatherDisplay:10.37,2013-05-31 20:12:00,
2013-05-31 13:17:00,70.3,46.8,30.21,SE,135,1.1,1.1,43,0.00,CLR,FEW,0.00,WeatherDisplay:10.37,2013-05-31 20:17:00,
2013-05-31 13:22:00,70.5,46.3,30.21,ESE,112,0.0,0.0,42,0.00,CLR,FEW,0.00,WeatherDisplay:10.37,2013-05-31 20:22:00,
2013-05-31 13:27:00,70.7,45.2,30.21,North,0,8.5,8.5,40,0.00,CLR,FEW,0.00,WeatherDisplay:10.37,2013-05-31 20:27:00,
2013-05-31 13:32:00,71.1,44.8,30.21,NNW,338,3.5,3.5,39,0.00,CLR,FEW,0.00,WeatherDisplay:10.37,2013-05-31 20:32:00,
2013-05-31 13:37:00,71.1,43.5,30.21,NW,315,8.1,8.1,37,0.00,CLR,FEW,0.00,WeatherDisplay:10.37,2013-05-31 20:37:00,
2013-05-31 13:42:00,71.2,45.0,30.20,WSW,248,3.5,3.5,39,0.00,CLR,FEW,0.00,WeatherDisplay:10.37,2013-05-31 20:42:00,
2013-05-31 13:47:00,71.4,44.5,30.21,WSW,248,0.0,0.0,38,0.00,CLR,FEW,0.00,WeatherDisplay:10.37,2013-05-31 20:47:00,
2013-05-31 13:52:00,71.8,43.4,30.20,ESE,112,2.3,2.3,36,0.00,CLR,FEW,0.00,WeatherDisplay:10.37,2013-05-31 20:52:00,
2013-05-31 13:57:00,71.2,45.0,30.20,SE,135,2.3,0.0,39,0.00,CLR,FEW,0.00,WeatherDisplay:10.37,2013-05-31 20:57:00,
2013-05-31 14:02:00,71.8,44.8,30.20,ENE,68,0.0,0.0,38,0.00,CLR,FEW,0.00,WeatherDisplay:10.37,2013-05-31 21:02:00,
2013-05-31 14:07:00,72.3,46.6,30.20,South,180,0.0,0.0,40,0.00,CLR,FEW,0.00,WeatherDisplay:10.37,2013-05-31 21:07:00,
2013-05-31 14:12:00,72.7,46.3,30.20,SSW,202,1.1,0.0,39,0.00,CLR,FEW,0.00,WeatherDisplay:10.37,2013-05-31 21:12:00,
2013-05-31 14:17:00,73.0,46.6,30.20,SSE,158,2.3,2.3,39,0.00,CLR,FEW,0.00,WeatherDisplay:10.37,2013-05-31 21:17:00,
2013-05-31 14:22:00,73.2,46.1,30.20,SSE,158,0.0,0.0,38,0.00,CLR,FEW,0.00,WeatherDisplay:10.37,2013-05-31 21:22:00,
2013-05-31 14:27:00,73.8,44.4,30.19,WSW,248,6.9,6.9,35,0.00,CLR,FEW,0.00,WeatherDisplay:10.37,2013-05-31 21:27:00,
2013-05-31 14:32:00,73.6,42.7,30.20,SE,135,0.0,0.0,33,0.00,CLR,FEW,0.00,WeatherDisplay:10.37,2013-05-31 21:32:00,
2013-05-31 14:37:00,73.2,43.2,30.19,SE,135,1.1,1.1,34,0.00,CLR,FEW,0.00,WeatherDisplay:10.37,2013-05-31 21:37:00,
2013-05-31 14:42:00,73.0,43.8,30.19,WNW,292,0.0,0.0,35,0.00,CLR,FEW,0.00,WeatherDisplay:10.37,2013-05-31 21:42:00,
2013-05-31 14:47:00,72.5,42.5,30.19,WSW,248,0.0,0.0,34,0.00,CLR,FEW,0.00,WeatherDisplay:10.37,2013-05-31 21:47:00,
2013-05-31 14:52:00,72.5,43.3,30.19,WSW,248,0.0,0.0,35,0.00,CLR,FEW,0.00,WeatherDisplay:10.37,2013-05-31 21:52:00,
2013-05-31 14:57:00,72.5,42.5,30.19,SW,225,0.0,0.0,34,0.00,CLR,FEW,0.00,WeatherDisplay:10.37,2013-05-31 21:57:00,
2013-05-31 15:02:00,72.3,42.4,30.19,SW,225,0.0,0.0,34,0.00,CLR,FEW,0.00,WeatherDisplay:10.37,2013-05-31 22:02:00,
2013-05-31 15:07:00,72.7,43.4,30.19,SW,225,0.0,0.0,35,0.00,CLR,FEW,0.00,WeatherDisplay:10.37,2013-05-31 22:07:00,
2013-05-31 15:12:00,72.7,42.7,30.19,SE,135,8.3,8.3,34,0.00,CLR,FEW,0.00,WeatherDisplay:10.37,2013-05-31 22:12:00,
2013-05-31 15:17:00,72.0,42.8,30.19,SE,135,2.3,2.3,35,0.00,CLR,FEW,0.00,WeatherDisplay:10.37,2013-05-31 22:17:00,
2013-05-31 15:22:00,71.8,42.6,30.19,SSE,158,0.0,0.0,35,0.00,CLR,FEW,0.00,WeatherDisplay:10.37,2013-05-31 22:22:00,
2013-05-31 15:27:00,71.8,43.4,30.19,SE,135,0.0,0.0,36,0.00,CLR,FEW,0.00,WeatherDisplay:10.37,2013-05-31 22:27:00,
2013-05-31 15:32:00,71.8,43.4,30.18,SSW,202,4.6,4.6,36,0.00,CLR,FEW,0.00,WeatherDisplay:10.37,2013-05-31 22:32:00,
2013-05-31 15:37:00,71.8,42.6,30.19,SSE,158,0.0,0.0,35,0.00,CLR,FEW,0.00,WeatherDisplay:10.37,2013-05-31 22:37:00,
2013-05-31 15:42:00,71.8,43.4,30.19,SE,135,0.0,0.0,36,0.00,CLR,FEW,0.00,WeatherDisplay:10.37,2013-05-31 22:42:00,
2013-05-31 15:47:00,71.2,41.4,30.18,SSE,158,0.0,0.0,34,0.00,CLR,FEW,0.00,WeatherDisplay:10.37,2013-05-31 22:47:00,
2013-05-31 15:52:00,71.1,42.0,30.19,WSW,248,0.0,0.0,35,0.00,CLR,FEW,0.00,WeatherDisplay:10.37,2013-05-31 22:52:00,
2013-05-31 15:57:00,70.9,41.9,30.18,WSW,248,0.0,0.0,35,0.00,CLR,FEW,0.00,WeatherDisplay:10.37,2013-05-31 22:57:00,
2013-05-31 16:02:00,70.7,42.4,30.18,WSW,248,0.0,0.0,36,0.00,CLR,FEW,0.00,WeatherDisplay:10.37,2013-05-31 23:02:00,
2013-05-31 16:07:00,70.7,43.1,30.18,WSW,248,0.0,0.0,37,0.00,CLR,FEW,0.00,WeatherDisplay:10.37,2013-05-31 23:07:00,
2013-05-31 16:12:00,70.5,43.0,30.18,WSW,248,0.0,0.0,37,0.00,CLR,FEW,0.00,WeatherDisplay:10.37,2013-05-31 23:12:00,
2013-05-31 16:17:00,70.7,42.4,30.18,SW,225,0.0,0.0,36,0.00,CLR,FEW,0.00,WeatherDisplay:10.37,2013-05-31 23:17:00,
2013-05-31 16:22:00,70.5,42.3,30.18,SW,225,0.0,0.0,36,0.00,CLR,FEW,0.00,WeatherDisplay:10.37,2013-05-31 23:22:00,
2013-05-31 16:27:00,70.5,41.5,30.18,SW,225,0.0,0.0,35,0.00,CLR,FEW,0.00,WeatherDisplay:10.37,2013-05-31 23:27:00,
2013-05-31 16:32:00,70.5,41.5,30.18,SW,225,0.0,0.0,35,0.00,CLR,FEW,0.00,WeatherDisplay:10.37,2013-05-31 23:32:00,
2013-05-31 16:37:00,70.7,41.7,30.17,SW,225,0.0,0.0,35,0.00,CLR,FEW,0.00,WeatherDisplay:10.37,2013-05-31 23:37:00,
2013-05-31 16:42:00,70.9,41.9,30.17,SW,225,0.0,0.0,35,0.00,CLR,FEW,0.00,WeatherDisplay:10.37,2013-05-31 23:42:00,
2013-05-31 16:47:00,70.7,40.9,30.16,South,180,0.0,0.0,34,0.00,CLR,FEW,0.00,WeatherDisplay:10.37,2013-05-31 23:47:00,
2013-05-31 16:52:00,70.7,41.7,30.17,South,180,0.0,0.0,35,0.00,CLR,FEW,0.00,WeatherDisplay:10.37,2013-05-31 23:52:00,
2013-05-31 16:57:00,70.9,41.9,30.17,South,180,0.0,0.0,35,0.00,CLR,FEW,0.00,WeatherDisplay:10.37,2013-05-31 23:57:00,
2013-05-31 17:02:00,70.9,41.9,30.18,SE,135,0.0,0.0,35,0.00,CLR,FEW,0.00,WeatherDisplay:10.37,2013-06-01 00:02:00,
2013-05-31 17:07:00,71.2,41.4,30.17,SE,135,0.0,0.0,34,0.00,CLR,FEW,0.00,WeatherDisplay:10.37,2013-06-01 00:07:00,
2013-05-31 17:12:00,71.2,41.4,30.17,SE,135,0.0,0.0,34,0.00,CLR,FEW,0.00,WeatherDisplay:10.37,2013-06-01 00:12:00,
2013-05-31 17:17:00,71.4,40.8,30.17,SE,135,0.0,0.0,33,0.00,CLR,FEW,0.00,WeatherDisplay:10.37,2013-06-01 00:17:00,
2013-05-31 17:22:00,71.4,40.8,30.17,SE,135,0.0,0.0,33,0.00,CLR,FEW,0.00,WeatherDisplay:10.37,2013-06-01 00:22:00,
2013-05-31 17:27:00,71.4,40.0,30.17,ESE,112,0.0,0.0,32,0.00,CLR,FEW,0.00,WeatherDisplay:10.37,2013-06-01 00:27:00,
2013-05-31 17:32:00,71.4,40.8,30.16,ESE,112,0.0,0.0,33,0.00,CLR,FEW,0.00,WeatherDisplay:10.37,2013-06-01 00:32:00,
2013-05-31 17:37:00,71.4,40.0,30.16,ESE,112,0.0,0.0,32,0.00,CLR,FEW,0.00,WeatherDisplay:10.37,2013-06-01 00:37:00,
2013-05-31 17:42:00,71.4,39.2,30.16,NNE,22,0.0,0.0,31,0.00,CLR,FEW,0.00,WeatherDisplay:10.37,2013-06-01 00:42:00,
2013-05-31 17:47:00,71.8,39.5,30.17,NNE,22,0.0,0.0,31,0.00,CLR,FEW,0.00,WeatherDisplay:10.37,2013-06-01 00:47:00,
2013-05-31 17:52:00,72.0,39.7,30.16,NNE,22,0.0,0.0,31,0.00,CLR,FEW,0.00,WeatherDisplay:10.37,2013-06-01 00:52:00,
2013-05-31 17:57:00,72.7,41.1,30.17,NNE,22,0.0,0.0,32,0.00,CLR,FEW,0.00,WeatherDisplay:10.37,2013-06-01 00:57:00,
2013-05-31 18:02:00,72.5,40.1,30.17,NNE,22,0.0,0.0,31,0.00,CLR,FEW,0.00,WeatherDisplay:10.37,2013-06-01 01:02:00,
2013-05-31 18:07:00,72.3,40.0,30.17,NNE,22,0.0,0.0,31,0.00,CLR,FEW,0.00,WeatherDisplay:10.37,2013-06-01 01:07:00,
2013-05-31 18:12:00,72.1,41.4,30.17,NNE,22,0.0,0.0,33,0.00,CLR,FEW,0.00,WeatherDisplay:10.37,2013-06-01 01:12:00,
2013-05-31 18:17:00,72.5,41.7,30.17,NNE,22,0.0,0.0,33,0.00,CLR,FEW,0.00,WeatherDisplay:10.37,2013-06-01 01:17:00,
2013-05-31 18:22:00,73.0,41.4,30.17,NNE,22,0.0,0.0,32,0.00,CLR,FEW,0.00,WeatherDisplay:10.37,2013-06-01 01:22:00,
2013-05-31 18:27:00,73.8,41.2,30.17,NNW,338,0.0,0.0,31,0.00,CLR,FEW,0.00,WeatherDisplay:10.37,2013-06-01 01:27:00,
2013-05-31 18:32:00,74.1,41.5,30.17,NNW,338,2.3,2.3,31,0.00,CLR,FEW,0.00,WeatherDisplay:10.37,2013-06-01 01:32:00,
2013-05-31 18:37:00,74.1,40.7,30.17,NW,315,0.0,0.0,30,0.00,CLR,FEW,0.00,WeatherDisplay:10.37,2013-06-01 01:37:00,
2013-05-31 18:42:00,74.3,40.8,30.17,NW,315,0.0,0.0,30,0.00,CLR,FEW,0.00,WeatherDisplay:10.37,2013-06-01 01:42:00,
2013-05-31 18:47:00,73.9,39.7,30.17,NW,315,0.0,0.0,29,0.00,CLR,FEW,0.00,WeatherDisplay:10.37,2013-06-01 01:47:00,
2013-05-31 18:52:00,73.9,41.4,30.17,NW,315,0.0,0.0,31,0.00,CLR,FEW,0.00,WeatherDisplay:10.37,2013-06-01 01:52:00,
2013-05-31 18:57:00,73.9,41.4,30.18,NW,315,0.0,0.0,31,0.00,CLR,FEW,0.00,WeatherDisplay:10.37,2013-06-01 01:57:00,
2013-05-31 19:02:00,73.8,42.0,30.18,NNW,338,0.0,0.0,32,0.00,CLR,FEW,0.00,WeatherDisplay:10.37,2013-06-01 02:02:00,
2013-05-31 19:07:00,73.6,41.9,30.18,NW,315,0.0,0.0,32,0.00,CLR,FEW,0.00,WeatherDisplay:10.37,2013-06-01 02:07:00,
2013-05-31 19:12:00,73.8,42.9,30.18,NW,315,0.0,0.0,33,0.00,CLR,FEW,0.00,WeatherDisplay:10.37,2013-06-01 02:12:00,
2013-05-31 19:17:00,73.8,42.9,30.17,NW,315,0.0,0.0,33,0.00,CLR,FEW,0.00,WeatherDisplay:10.37,2013-06-01 02:17:00,
2013-05-31 19:22:00,73.2,43.9,30.18,NW,315,0.0,0.0,35,0.00,CLR,FEW,0.00,WeatherDisplay:10.37,2013-06-01 02:22:00,
2013-05-31 19:27:00,72.7,45.6,30.17,NW,315,0.0,0.0,38,0.00,CLR,FEW,0.00,WeatherDisplay:10.37,2013-06-01 02:27:00,
2013-05-31 19:32:00,71.2,45.0,30.17,NW,315,0.0,0.0,39,0.00,CLR,FEW,0.00,WeatherDisplay:10.37,2013-06-01 02:32:00,
2013-05-31 19:37:00,70.2,44.0,30.17,NW,315,0.0,0.0,39,0.00,CLR,FEW,0.00,WeatherDisplay:10.37,2013-06-01 02:37:00,
2013-05-31 19:42:00,68.7,45.9,30.18,NW,315,0.0,0.0,44,0.00,CLR,FEW,0.00,WeatherDisplay:10.37,2013-06-01 02:42:00,
2013-05-31 19:47:00,67.6,45.5,30.17,NNW,338,0.0,0.0,45,0.00,CLR,FEW,0.00,WeatherDisplay:10.37,2013-06-01 02:47:00,
2013-05-31 19:52:00,66.4,44.4,30.17,NNW,338,0.0,0.0,45,0.00,CLR,FEW,0.00,WeatherDisplay:10.37,2013-06-01 02:52:00,
2013-05-31 19:59:00,64.9,44.2,30.17,NNW,338,0.0,0.0,47,0.00,CLR,FEW,0.00,WeatherDisplay:10.37,2013-06-01 02:59:00,
2013-05-31 20:04:00,64.4,44.3,30.17,NNW,338,0.0,0.0,48,0.00,CLR,FEW,0.00,WeatherDisplay:10.37,2013-06-01 03:04:00,
2013-05-31 20:09:00,63.5,44.0,30.17,NNW,338,0.0,0.0,49,0.00,CLR,FEW,0.00,WeatherDisplay:10.37,2013-06-01 03:09:00,
2013-05-31 20:14:00,63.1,44.2,30.17,NNW,338,0.0,0.0,50,0.00,CLR,FEW,0.00,WeatherDisplay:10.37,2013-06-01 03:14:00,
2013-05-31 20:19:00,62.6,44.2,30.17,NNW,338,0.0,0.0,51,0.00,CLR,FEW,0.00,WeatherDisplay:10.37,2013-06-01 03:19:00,
2013-05-31 20:24:00,61.5,43.2,30.17,NNW,338,0.0,0.0,51,0.00,CLR,FEW,0.00,WeatherDisplay:10.37,2013-06-01 03:24:00,
2013-05-31 20:29:00,61.0,43.2,30.17,NNW,338,0.0,0.0,52,0.00,CLR,FEW,0.00,WeatherDisplay:10.37,2013-06-01 03:29:00,
2013-05-31 20:34:00,60.3,42.6,30.17,NNW,338,0.0,0.0,52,0.00,CLR,FEW,0.00,WeatherDisplay:10.37,2013-06-01 03:34:00,
2013-05-31 20:39:00,59.2,42.0,30.18,NNW,338,0.0,0.0,53,0.00,CLR,FEW,0.00,WeatherDisplay:10.37,2013-06-01 03:39:00,
2013-05-31 20:44:00,58.8,42.2,30.18,NNW,338,0.0,0.0,54,0.00,CLR,FEW,0.00,WeatherDisplay:10.37,2013-06-01 03:44:00,
2013-05-31 20:49:00,58.1,42.0,30.18,NNW,338,0.0,0.0,55,0.00,CLR,FEW,0.00,WeatherDisplay:10.37,2013-06-01 03:49:00,
2013-05-31 20:54:00,57.4,41.3,30.18,NNW,338,0.0,0.0,55,0.00,CLR,FEW,0.00,WeatherDisplay:10.37,2013-06-01 03:54:00,
2013-05-31 20:59:00,56.8,41.3,30.18,NNW,338,0.0,0.0,56,0.00,CLR,FEW,0.00,WeatherDisplay:10.37,2013-06-01 03:59:00,
2013-05-31 21:01:00,56.5,41.0,30.18,NNW,338,0.0,0.0,56,0.00,CLR,FEW,0.00,WeatherDisplay:10.37,2013-06-01 04:01:00,
2013-05-31 21:02:00,56.5,41.4,30.18,NNW,338,0.0,0.0,57,0.00,CLR,FEW,0.00,WeatherDisplay:10.37,2013-06-01 04:02:00,
2013-05-31 21:07:00,55.9,40.9,30.18,NNW,338,0.0,0.0,57,0.00,CLR,FEW,0.00,WeatherDisplay:10.37,2013-06-01 04:07:00,
2013-05-31 21:12:00,55.6,41.0,30.19,NNW,338,0.0,0.0,58,0.00,CLR,FEW,0.00,WeatherDisplay:10.37,2013-06-01 04:12:00,
2013-05-31 21:17:00,55.0,41.0,30.19,NNW,338,0.0,0.0,59,0.00,CLR,FEW,0.00,WeatherDisplay:10.37,2013-06-01 04:17:00,
2013-05-31 21:22:00,54.7,40.6,30.19,NNW,338,0.0,0.0,59,0.00,CLR,FEW,0.00,WeatherDisplay:10.37,2013-06-01 04:22:00,
2013-05-31 21:27:00,54.3,40.3,30.20,NNW,338,0.0,0.0,59,0.00,CLR,FEW,0.00,WeatherDisplay:10.37,2013-06-01 04:27:00,
2013-05-31 21:32:00,53.8,40.2,30.20,NNW,338,0.0,0.0,60,0.00,CLR,FEW,0.00,WeatherDisplay:10.37,2013-06-01 04:32:00,
2013-05-31 21:37:00,53.4,40.3,30.20,NNW,338,0.0,0.0,61,0.00,CLR,FEW,0.00,WeatherDisplay:10.37,2013-06-01 04:37:00,
2013-05-31 21:42:00,52.9,39.8,30.20,NNW,338,0.0,0.0,61,0.00,CLR,FEW,0.00,WeatherDisplay:10.37,2013-06-01 04:42:00,
2013-05-31 21:47:00,52.3,40.1,30.20,NNW,338,0.0,0.0,63,0.00,CLR,FEW,0.00,WeatherDisplay:10.37,2013-06-01 04:47:00,
2013-05-31 21:52:00,52.0,39.8,30.21,NNW,338,0.0,0.0,63,0.00,CLR,FEW,0.00,WeatherDisplay:10.37,2013-06-01 04:52:00,
2013-05-31 21:57:00,51.8,39.6,30.21,NNW,338,0.0,0.0,63,0.00,CLR,FEW,0.00,WeatherDisplay:10.37,2013-06-01 04:57:00,
2013-05-31 22:02:00,51.6,39.8,30.21,NNW,338,0.0,0.0,64,0.00,CLR,FEW,0.00,WeatherDisplay:10.37,2013-06-01 05:02:00,
2013-05-31 22:07:00,51.1,39.3,30.21,NNW,338,0.0,0.0,64,0.00,CLR,FEW,0.00,WeatherDisplay:10.37,2013-06-01 05:07:00,
2013-05-31 22:12:00,50.9,39.5,30.21,NNW,338,0.0,0.0,65,0.00,CLR,FEW,0.00,WeatherDisplay:10.37,2013-06-01 05:12:00,
2013-05-31 22:17:00,50.5,39.2,30.21,NNW,338,0.0,0.0,65,0.00,CLR,FEW,0.00,WeatherDisplay:10.37,2013-06-01 05:17:00,
2013-05-31 22:22:00,50.2,38.9,30.21,NNW,338,0.0,0.0,65,0.00,CLR,FEW,0.00,WeatherDisplay:10.37,2013-06-01 05:22:00,
2013-05-31 22:27:00,49.8,38.9,30.21,NNW,338,0.0,0.0,66,0.00,CLR,FEW,0.00,WeatherDisplay:10.37,2013-06-01 05:27:00,
2013-05-31 22:32:00,49.5,38.6,30.21,NNW,338,0.0,0.0,66,0.00,CLR,FEW,0.00,WeatherDisplay:10.37,2013-06-01 05:32:00,
2013-05-31 22:37:00,49.3,38.8,30.22,NNW,338,0.0,0.0,67,0.00,CLR,FEW,0.00,WeatherDisplay:10.37,2013-06-01 05:37:00,
2013-05-31 22:42:00,48.9,38.4,30.21,NNW,338,0.0,0.0,67,0.00,CLR,FEW,0.00,WeatherDisplay:10.37,2013-06-01 05:42:00,
2013-05-31 22:47:00,48.7,38.3,30.21,NNW,338,0.0,0.0,67,0.00,CLR,FEW,0.00,WeatherDisplay:10.37,2013-06-01 05:47:00,
2013-05-31 22:52:00,48.6,38.1,30.21,NNW,338,0.0,0.0,67,0.00,CLR,FEW,0.00,WeatherDisplay:10.37,2013-06-01 05:52:00,
2013-05-31 22:57:00,48.4,38.7,30.21,NNW,338,0.0,0.0,69,0.00,CLR,FEW,0.00,WeatherDisplay:10.37,2013-06-01 05:57:00,
2013-05-31 23:02:00,48.0,38.3,30.22,NNW,338,0.0,0.0,69,0.00,CLR,FEW,0.00,WeatherDisplay:10.37,2013-06-01 06:02:00,
2013-05-31 23:07:00,47.8,38.5,30.22,NNW,338,0.0,0.0,70,0.00,CLR,FEW,0.00,WeatherDisplay:10.37,2013-06-01 06:07:00,
2013-05-31 23:12:00,47.5,38.2,30.22,NNW,338,0.0,0.0,70,0.00,CLR,FEW,0.00,WeatherDisplay:10.37,2013-06-01 06:12:00,
2013-05-31 23:17:00,47.1,37.8,30.22,NNW,338,0.0,0.0,70,0.00,CLR,FEW,0.00,WeatherDisplay:10.37,2013-06-01 06:17:00,
2013-05-31 23:22:00,46.9,37.7,30.22,NNW,338,0.0,0.0,70,0.00,CLR,FEW,0.00,WeatherDisplay:10.37,2013-06-01 06:22:00,
2013-05-31 23:27:00,46.8,37.5,30.22,NNW,338,0.0,0.0,70,0.00,CLR,FEW,0.00,WeatherDisplay:10.37,2013-06-01 06:27:00,
2013-05-31 23:32:00,46.6,37.7,30.22,NNW,338,0.0,0.0,71,0.00,CLR,FEW,0.00,WeatherDisplay:10.37,2013-06-01 06:32:00,
2013-05-31 23:37:00,46.6,38.0,30.23,NNW,338,0.0,0.0,72,0.00,CLR,FEW,0.00,WeatherDisplay:10.37,2013-06-01 06:37:00,
2013-05-31 23:42:00,46.2,37.7,30.22,NNW,338,0.0,0.0,72,0.00,CLR,FEW,0.00,WeatherDisplay:10.37,2013-06-01 06:42:00,
2013-05-31 23:47:00,46.0,37.9,30.23,NNW,338,0.0,0.0,73,0.00,CLR,FEW,0.00,WeatherDisplay:10.37,2013-06-01 06:47:00,
2013-05-31 23:52:00,46.0,37.9,30.23,NNW,338,0.0,0.0,73,0.00,CLR,FEW,0.00,WeatherDisplay:10.37,2013-06-01 06:52:00,
2013-05-31 23:57:00,45.7,37.5,30.23,NNW,338,0.0,0.0,73,0.00,CLR,FEW,0.00,WeatherDisplay:10.37,2013-06-01 06:57:00,